Time,TemperatureF,DewpointF,PressureIn,WindDirection,WindDirectionDegrees,WindSpeedMPH,WindSpeedGustMPH,Humidity,HourlyPrecipIn,Conditions,Clouds,dailyrainin,SoftwareType,DateUTC
2013-09-25 00:00:00,47.0,47.0,29.90,East,85,0.0,0.0,100,0.00,,OVC041,0.00,VWS V12.08,2013-09-25 04:00:00,
2013-09-25 00:01:00,47.0,47.0,29.90,East,85,0.0,0.0,100,0.00,,OVC041,0.00,VWS V12.08,2013-09-25 04:01:00,
2013-09-25 00:02:00,46.9,46.9,29.90,East,85,0.0,0.0,100,0.00,,OVC041,0.00,VWS V12.08,2013-09-25 04:02:00,
2013-09-25 00:07:00,47.0,47.0,29.90,East,83,0.0,0.0,100,0.00,,OVC041,0.00,VWS V12.08,2013-09-25 04:07:00,
2013-09-25 00:12:00,47.0,47.0,29.90,East,83,0.0,0.0,100,0.00,,OVC041,0.00,VWS V12.08,2013-09-25 04:12:00,
2013-09-25 00:17:00,47.0,47.0,29.90,East,85,0.0,0.0,100,0.00,,OVC041,0.00,VWS V12.08,2013-09-25 04:17:00,
2013-09-25 00:22:00,47.0,47.0,29.90,East,83,0.0,0.0,100,0.00,,OVC041,0.00,VWS V12.08,2013-09-25 04:22:00,
2013-09-25 00:27:00,47.0,47.0,29.90,East,85,0.0,0.0,100,0.00,,OVC041,0.00,VWS V12.08,2013-09-25 04:27:00,
2013-09-25 00:32:00,46.9,46.9,29.90,East,85,0.0,0.0,100,0.00,,OVC041,0.00,VWS V12.08,2013-09-25 04:32:00,
2013-09-25 00:37:00,46.9,46.9,29.90,East,85,0.0,0.0,100,0.00,,OVC041,0.00,VWS V12.08,2013-09-25 04:37:00,
2013-09-25 00:42:00,46.9,46.9,29.90,East,83,0.0,0.0,100,0.00,,FEW001,0.00,VWS V12.08,2013-09-25 04:42:00,
2013-09-25 00:47:00,46.7,46.7,29.90,East,83,0.0,0.0,100,0.00,,FEW001,0.00,VWS V12.08,2013-09-25 04:47:00,
2013-09-25 00:52:00,46.9,46.9,29.90,East,85,0.0,0.0,100,0.00,,FEW001,0.00,VWS V12.08,2013-09-25 04:52:00,
2013-09-25 00:57:00,46.9,46.9,29.90,East,85,0.0,0.0,100,0.00,,FEW001,0.00,VWS V12.08,2013-09-25 04:57:00,
2013-09-25 01:02:00,46.9,46.9,29.90,East,85,0.0,0.0,100,0.00,,FEW001,0.00,VWS V12.08,2013-09-25 05:02:00,
2013-09-25 01:07:00,46.9,46.9,29.90,East,85,0.0,0.0,100,0.00,,FEW001,0.00,VWS V12.08,2013-09-25 05:07:00,
2013-09-25 01:12:00,46.9,46.9,29.90,East,85,0.0,0.0,100,0.00,,FEW001,0.00,VWS V12.08,2013-09-25 05:12:00,
2013-09-25 01:17:00,46.9,46.9,29.90,East,85,0.0,0.0,100,0.00,,FEW001,0.00,VWS V12.08,2013-09-25 05:17:00,
2013-09-25 01:22:00,46.9,46.9,29.90,East,85,0.0,0.0,100,0.00,,FEW001,0.00,VWS V12.08,2013-09-25 05:22:00,
2013-09-25 01:27:00,46.9,46.9,29.90,East,85,0.0,0.0,100,0.00,,FEW001,0.00,VWS V12.08,2013-09-25 05:27:00,
2013-09-25 01:32:00,46.9,46.9,29.90,East,85,0.0,0.0,100,0.00,,FEW001,0.00,VWS V12.08,2013-09-25 05:32:00,
2013-09-25 01:37:00,46.9,46.9,29.90,East,85,0.0,0.0,100,0.00,,FEW001,0.00,VWS V12.08,2013-09-25 05:37:00,
2013-09-25 01:42:00,46.7,46.7,29.90,East,85,0.0,0.0,100,0.00,,FEW060,0.00,VWS V12.08,2013-09-25 05:42:00,
2013-09-25 01:47:00,46.7,46.7,29.90,East,85,0.0,0.0,100,0.00,,FEW060,0.00,VWS V12.08,2013-09-25 05:47:00,
2013-09-25 01:52:00,46.7,46.7,29.90,East,85,0.0,0.0,100,0.00,,FEW060,0.00,VWS V12.08,2013-09-25 05:52:00,
2013-09-25 01:57:00,46.6,46.6,29.90,East,85,0.0,0.0,100,0.00,,FEW060,0.00,VWS V12.08,2013-09-25 05:57:00,
2013-09-25 02:02:00,46.6,46.6,29.90,East,85,0.0,0.0,100,0.00,,FEW060,0.00,VWS V12.08,2013-09-25 06:02:00,
2013-09-25 02:07:00,46.6,46.6,29.90,East,85,0.0,0.0,100,0.00,,FEW060,0.00,VWS V12.08,2013-09-25 06:07:00,
2013-09-25 02:13:00,46.6,46.6,29.90,East,83,0.0,0.0,100,0.00,,FEW060,0.00,VWS V12.08,2013-09-25 06:13:00,
2013-09-25 02:18:00,46.6,46.6,29.90,East,85,0.0,0.0,100,0.00,,FEW060,0.00,VWS V12.08,2013-09-25 06:18:00,
2013-09-25 02:23:00,46.6,46.6,29.90,East,85,0.0,0.0,100,0.00,,FEW060,0.00,VWS V12.08,2013-09-25 06:23:00,
2013-09-25 02:28:00,46.6,46.6,29.90,East,85,0.0,0.0,100,0.00,,FEW060,0.00,VWS V12.08,2013-09-25 06:28:00,
2013-09-25 02:33:00,46.6,46.6,29.90,East,83,0.0,0.0,100,0.00,,FEW060,0.00,VWS V12.08,2013-09-25 06:33:00,
2013-09-25 02:38:00,46.6,46.6,29.90,East,85,0.0,0.0,100,0.00,,FEW060,0.00,VWS V12.08,2013-09-25 06:38:00,
2013-09-25 02:43:00,46.6,46.6,29.90,East,85,0.0,0.0,100,0.00,,OVC041,0.00,VWS V12.08,2013-09-25 06:43:00,
2013-09-25 02:48:00,46.6,46.6,29.90,East,85,0.0,0.0,100,0.00,,OVC041,0.00,VWS V12.08,2013-09-25 06:48:00,
2013-09-25 02:53:00,46.6,46.6,29.90,East,85,0.0,0.0,100,0.00,,OVC041,0.00,VWS V12.08,2013-09-25 06:53:00,
2013-09-25 02:58:00,46.6,46.6,29.89,East,83,0.0,0.0,100,0.00,,OVC041,0.00,VWS V12.08,2013-09-25 06:58:00,
2013-09-25 03:03:00,46.6,46.6,29.89,East,83,0.0,0.0,100,0.00,,OVC041,0.00,VWS V12.08,2013-09-25 07:03:00,
2013-09-25 03:08:00,46.6,46.6,29.89,East,85,0.0,0.0,100,0.00,,OVC041,0.00,VWS V12.08,2013-09-25 07:08:00,
2013-09-25 03:13:00,46.6,46.6,29.90,East,85,0.0,0.0,100,0.00,,OVC041,0.00,VWS V12.08,2013-09-25 07:13:00,
2013-09-25 03:18:00,46.6,46.6,29.90,East,83,0.0,0.0,100,0.00,,OVC041,0.00,VWS V12.08,2013-09-25 07:18:00,
2013-09-25 03:23:00,46.6,46.6,29.90,East,85,0.0,0.0,100,0.00,,OVC041,0.00,VWS V12.08,2013-09-25 07:23:00,
2013-09-25 03:28:00,46.6,46.6,29.90,East,85,0.0,0.0,100,0.00,,OVC041,0.00,VWS V12.08,2013-09-25 07:28:00,
2013-09-25 03:33:00,46.6,46.6,29.90,East,85,0.0,0.0,100,0.00,,OVC041,0.00,VWS V12.08,2013-09-25 07:33:00,
2013-09-25 03:38:00,46.6,46.6,29.90,East,85,0.0,0.0,100,0.00,,OVC041,0.00,VWS V12.08,2013-09-25 07:38:00,
2013-09-25 03:43:00,46.6,46.6,29.90,East,85,0.0,0.0,100,0.00,,OVC035,0.00,VWS V12.08,2013-09-25 07:43:00,
2013-09-25 03:48:00,46.6,46.6,29.90,East,85,0.0,0.0,100,0.00,,OVC035,0.00,VWS V12.08,2013-09-25 07:48:00,
2013-09-25 03:53:00,46.6,46.6,29.90,East,83,0.0,0.0,100,0.00,,OVC035,0.00,VWS V12.08,2013-09-25 07:53:00,
2013-09-25 03:58:00,46.4,46.4,29.90,East,83,0.0,0.0,100,0.00,,OVC035,0.00,VWS V12.08,2013-09-25 07:58:00,
2013-09-25 04:03:00,46.4,46.4,29.90,East,85,1.0,1.0,100,0.00,,OVC028,0.00,VWS V12.08,2013-09-25 08:03:00,
2013-09-25 04:08:00,46.6,46.6,29.90,East,85,0.0,0.0,100,0.00,,OVC028,0.00,VWS V12.08,2013-09-25 08:08:00,
2013-09-25 04:13:00,46.6,46.6,29.90,East,85,0.0,0.0,100,0.00,,OVC028,0.00,VWS V12.08,2013-09-25 08:13:00,
2013-09-25 04:18:00,46.6,46.6,29.90,East,83,0.0,0.0,100,0.00,,OVC028,0.00,VWS V12.08,2013-09-25 08:18:00,
2013-09-25 04:23:00,46.6,46.6,29.90,East,83,0.0,0.0,100,0.00,,OVC028,0.00,VWS V12.08,2013-09-25 08:23:00,
2013-09-25 04:28:00,46.6,46.6,29.91,East,83,0.0,0.0,100,0.00,,OVC028,0.00,VWS V12.08,2013-09-25 08:28:00,
2013-09-25 04:33:00,46.6,46.6,29.91,East,85,0.0,0.0,100,0.00,,OVC028,0.00,VWS V12.08,2013-09-25 08:33:00,
2013-09-25 04:38:00,46.6,46.6,29.91,East,83,0.0,0.0,100,0.00,,OVC028,0.00,VWS V12.08,2013-09-25 08:38:00,
2013-09-25 04:43:00,46.6,46.6,29.90,East,85,0.0,0.0,100,0.00,,OVC028,0.00,VWS V12.08,2013-09-25 08:43:00,
2013-09-25 04:48:00,46.4,46.4,29.90,East,85,0.0,0.0,100,0.00,,OVC028,0.00,VWS V12.08,2013-09-25 08:48:00,
2013-09-25 04:53:00,46.4,46.4,29.90,East,85,0.0,0.0,100,0.00,,OVC028,0.00,VWS V12.08,2013-09-25 08:53:00,
2013-09-25 04:58:00,46.3,46.3,29.90,East,83,0.0,0.0,100,0.00,,OVC028,0.00,VWS V12.08,2013-09-25 08:58:00,
2013-09-25 05:04:00,46.3,46.3,29.90,East,83,0.0,0.0,100,0.00,,OVC080,0.00,VWS V12.08,2013-09-25 09:04:00,
2013-09-25 05:09:00,46.1,46.1,29.90,East,83,0.0,0.0,100,0.00,,OVC080,0.00,VWS V12.08,2013-09-25 09:09:00,
2013-09-25 05:14:00,46.0,46.0,29.91,East,83,0.0,0.0,100,0.00,,OVC080,0.00,VWS V12.08,2013-09-25 09:14:00,
2013-09-25 05:19:00,45.8,45.8,29.91,East,85,0.0,0.0,100,0.00,,OVC080,0.00,VWS V12.08,2013-09-25 09:19:00,
2013-09-25 05:24:00,45.7,45.7,29.91,East,83,0.0,0.0,100,0.00,,OVC080,0.00,VWS V12.08,2013-09-25 09:24:00,
2013-09-25 05:29:00,45.5,45.5,29.91,East,85,0.0,0.0,100,0.00,,OVC080,0.00,VWS V12.08,2013-09-25 09:29:00,
2013-09-25 05:34:00,45.4,45.4,29.91,East,83,0.0,0.0,100,0.00,,OVC080,0.00,VWS V12.08,2013-09-25 09:34:00,
2013-09-25 05:39:00,45.2,45.2,29.91,East,85,0.0,0.0,100,0.00,,OVC080,0.00,VWS V12.08,2013-09-25 09:39:00,
2013-09-25 05:44:00,45.1,45.1,29.92,East,85,0.0,0.0,100,0.00,,BKN085,0.00,VWS V12.08,2013-09-25 09:44:00,
2013-09-25 05:49:00,44.9,44.9,29.92,East,85,0.0,0.0,100,0.00,,BKN085,0.00,VWS V12.08,2013-09-25 09:49:00,
2013-09-25 05:54:00,44.8,44.8,29.92,East,83,0.0,0.0,100,0.00,,BKN085,0.00,VWS V12.08,2013-09-25 09:54:00,
2013-09-25 05:59:00,44.6,44.6,29.92,East,85,0.0,0.0,100,0.00,,BKN085,0.00,VWS V12.08,2013-09-25 09:59:00,
2013-09-25 06:04:00,44.6,44.6,29.92,East,85,0.0,0.0,100,0.00,,BKN085,0.00,VWS V12.08,2013-09-25 10:04:00,
2013-09-25 06:09:00,44.5,44.5,29.92,East,85,0.0,0.0,100,0.00,,BKN085,0.00,VWS V12.08,2013-09-25 10:09:00,
2013-09-25 06:14:00,44.5,44.5,29.92,East,85,0.0,0.0,100,0.00,,BKN085,0.00,VWS V12.08,2013-09-25 10:14:00,
2013-09-25 06:19:00,44.5,44.5,29.92,East,85,0.0,0.0,100,0.00,,BKN085,0.00,VWS V12.08,2013-09-25 10:19:00,
2013-09-25 06:24:00,44.5,44.5,29.92,East,83,0.0,1.0,100,0.00,,BKN085,0.00,VWS V12.08,2013-09-25 10:24:00,
2013-09-25 06:29:00,44.5,44.5,29.92,East,85,0.0,0.0,100,0.00,,BKN085,0.00,VWS V12.08,2013-09-25 10:29:00,
2013-09-25 06:34:00,44.5,44.5,29.92,East,85,0.0,0.0,100,0.00,,BKN085,0.00,VWS V12.08,2013-09-25 10:34:00,
2013-09-25 06:39:00,44.3,44.3,29.92,East,85,0.0,0.0,100,0.00,,BKN085,0.00,VWS V12.08,2013-09-25 10:39:00,
2013-09-25 06:44:00,44.3,44.3,29.93,East,85,0.0,0.0,100,0.00,,OVC065,0.00,VWS V12.08,2013-09-25 10:44:00,
2013-09-25 06:49:00,44.2,44.2,29.93,East,85,0.0,0.0,100,0.00,,OVC065,0.00,VWS V12.08,2013-09-25 10:49:00,
2013-09-25 06:54:00,44.2,44.2,29.93,East,85,0.0,0.0,100,0.00,,OVC065,0.00,VWS V12.08,2013-09-25 10:54:00,
2013-09-25 06:59:00,44.2,44.2,29.93,East,85,0.0,0.0,100,0.00,,OVC065,0.00,VWS V12.08,2013-09-25 10:59:00,
2013-09-25 07:04:00,44.3,44.3,29.93,East,85,0.0,0.0,100,0.00,,OVC065,0.00,VWS V12.08,2013-09-25 11:04:00,
2013-09-25 07:09:00,44.3,44.3,29.93,East,83,0.0,0.0,100,0.00,,OVC065,0.00,VWS V12.08,2013-09-25 11:09:00,
2013-09-25 07:14:00,44.3,44.3,29.93,East,83,0.0,0.0,100,0.00,,OVC065,0.00,VWS V12.08,2013-09-25 11:14:00,
2013-09-25 07:19:00,44.3,44.3,29.93,East,83,0.0,0.0,100,0.00,,OVC065,0.00,VWS V12.08,2013-09-25 11:19:00,
2013-09-25 07:24:00,44.2,44.2,29.93,East,85,0.0,0.0,100,0.00,,OVC065,0.00,VWS V12.08,2013-09-25 11:24:00,
2013-09-25 07:29:00,44.2,44.2,29.93,East,85,0.0,0.0,100,0.00,,OVC065,0.00,VWS V12.08,2013-09-25 11:29:00,
2013-09-25 07:34:00,44.2,44.2,29.93,East,83,0.0,0.0,100,0.00,,OVC065,0.00,VWS V12.08,2013-09-25 11:34:00,
2013-09-25 07:39:00,44.3,44.3,29.93,East,85,0.0,1.0,100,0.00,,OVC065,0.00,VWS V12.08,2013-09-25 11:39:00,
2013-09-25 07:44:00,44.3,44.3,29.93,East,85,0.0,0.0,100,0.00,,OVC065,0.00,VWS V12.08,2013-09-25 11:44:00,
2013-09-25 07:49:00,44.3,44.3,29.93,East,85,0.0,1.0,100,0.00,,OVC065,0.00,VWS V12.08,2013-09-25 11:49:00,
2013-09-25 07:54:00,44.6,44.6,29.93,East,85,0.0,2.0,100,0.00,,OVC065,0.00,VWS V12.08,2013-09-25 11:54:00,
2013-09-25 07:59:00,44.8,44.8,29.93,East,83,1.0,2.0,100,0.00,,OVC065,0.00,VWS V12.08,2013-09-25 11:59:00,
2013-09-25 08:04:00,44.9,44.9,29.93,East,83,0.0,0.0,100,0.00,,OVC065,0.00,VWS V12.08,2013-09-25 12:04:00,
2013-09-25 08:09:00,45.1,45.1,29.93,East,85,2.0,2.0,100,0.00,,OVC065,0.00,VWS V12.08,2013-09-25 12:09:00,
2013-09-25 08:14:00,45.2,45.2,29.92,East,82,1.0,3.0,100,0.00,,OVC065,0.00,VWS V12.08,2013-09-25 12:14:00,
2013-09-25 08:19:00,45.7,45.7,29.92,East,80,1.0,3.0,100,0.00,,OVC065,0.00,VWS V12.08,2013-09-25 12:19:00,
2013-09-25 08:24:00,45.8,45.8,29.92,East,79,1.0,3.0,100,0.00,,OVC065,0.00,VWS V12.08,2013-09-25 12:24:00,
2013-09-25 08:27:00,46.0,46.0,29.92,East,80,2.0,2.0,100,0.00,,OVC065,0.00,VWS V12.08,2013-09-25 12:27:00,
2013-09-25 08:32:00,46.3,46.3,29.92,East,79,0.0,2.0,100,0.00,,OVC065,0.00,VWS V12.08,2013-09-25 12:32:00,
2013-09-25 08:37:00,46.4,46.4,29.92,East,79,0.0,2.0,100,0.00,,OVC065,0.00,VWS V12.08,2013-09-25 12:37:00,
2013-09-25 08:42:00,46.7,46.7,29.93,East,79,0.0,0.0,100,0.00,,OVC065,0.00,VWS V12.08,2013-09-25 12:42:00,
2013-09-25 08:47:00,47.0,47.0,29.93,East,80,0.0,0.0,100,0.00,,OVC065,0.00,VWS V12.08,2013-09-25 12:47:00,
2013-09-25 08:52:00,47.6,47.3,29.93,East,79,0.0,0.0,99,0.00,,OVC065,0.00,VWS V12.08,2013-09-25 12:52:00,
2013-09-25 08:57:00,48.0,47.5,29.92,East,79,0.0,0.0,98,0.00,,OVC065,0.00,VWS V12.08,2013-09-25 12:57:00,
2013-09-25 09:02:00,48.6,47.2,29.92,East,80,0.0,0.0,95,0.00,,OVC055,0.00,VWS V12.08,2013-09-25 13:02:00,
2013-09-25 09:07:00,49.5,47.6,29.92,East,79,0.0,0.0,93,0.00,,OVC055,0.00,VWS V12.08,2013-09-25 13:07:00,
2013-09-25 09:12:00,50.3,47.5,29.93,East,79,0.0,0.0,90,0.00,,OVC055,0.00,VWS V12.08,2013-09-25 13:12:00,
2013-09-25 09:17:00,51.0,46.7,29.93,East,79,0.0,0.0,85,0.00,,OVC055,0.00,VWS V12.08,2013-09-25 13:17:00,
2013-09-25 09:22:00,52.0,45.7,29.93,East,79,2.0,3.0,79,0.00,,OVC055,0.00,VWS V12.08,2013-09-25 13:22:00,
2013-09-25 09:27:00,52.2,44.9,29.93,East,89,2.0,3.0,76,0.00,,OVC055,0.00,VWS V12.08,2013-09-25 13:27:00,
2013-09-25 09:32:00,51.7,44.4,29.93,East,82,3.0,6.0,76,0.00,,OVC055,0.00,VWS V12.08,2013-09-25 13:32:00,
2013-09-25 09:37:00,52.8,44.4,29.93,ENE,75,3.0,6.0,73,0.00,,OVC055,0.00,VWS V12.08,2013-09-25 13:37:00,
2013-09-25 09:42:00,53.2,44.0,29.93,ESE,117,2.0,3.0,71,0.00,,OVC050,0.00,VWS V12.08,2013-09-25 13:42:00,
2013-09-25 09:47:00,53.7,44.5,29.93,ENE,76,1.0,2.0,71,0.00,,OVC050,0.00,VWS V12.08,2013-09-25 13:47:00,
2013-09-25 09:52:00,53.1,44.7,29.93,ENE,78,3.0,6.0,73,0.00,,OVC050,0.00,VWS V12.08,2013-09-25 13:52:00,
2013-09-25 09:57:00,52.6,44.6,29.93,NE,54,0.0,5.0,74,0.00,,OVC050,0.00,VWS V12.08,2013-09-25 13:57:00,
2013-09-25 10:03:00,52.9,45.2,29.93,NE,55,1.0,3.0,75,0.00,,OVC050,0.00,VWS V12.08,2013-09-25 14:03:00,
2013-09-25 10:08:00,52.9,44.5,29.93,East,100,4.0,5.0,73,0.00,,OVC050,0.00,VWS V12.08,2013-09-25 14:08:00,
2013-09-25 10:13:00,52.9,44.5,29.93,East,82,1.0,2.0,73,0.00,,OVC050,0.00,VWS V12.08,2013-09-25 14:13:00,
2013-09-25 10:18:00,53.1,44.3,29.93,ENE,59,2.0,2.0,72,0.00,,OVC050,0.00,VWS V12.08,2013-09-25 14:18:00,
2013-09-25 10:23:00,52.9,44.5,29.93,ENE,68,0.0,3.0,73,0.00,,OVC050,0.00,VWS V12.08,2013-09-25 14:23:00,
2013-09-25 10:28:00,53.1,44.7,29.93,East,80,2.0,5.0,73,0.00,,OVC050,0.00,VWS V12.08,2013-09-25 14:28:00,
2013-09-25 10:33:00,53.1,44.3,29.93,ENE,76,0.0,3.0,72,0.00,,OVC050,0.00,VWS V12.08,2013-09-25 14:33:00,
2013-09-25 10:38:00,53.1,44.7,29.93,ENE,75,2.0,3.0,73,0.00,,OVC050,0.00,VWS V12.08,2013-09-25 14:38:00,
2013-09-25 10:43:00,53.4,45.0,29.93,ENE,76,1.0,1.0,73,0.00,,OVC050,0.00,VWS V12.08,2013-09-25 14:43:00,
2013-09-25 10:48:00,53.8,45.0,29.93,East,79,3.0,3.0,72,0.00,,OVC050,0.00,VWS V12.08,2013-09-25 14:48:00,
2013-09-25 10:53:00,54.0,44.8,29.93,ENE,71,2.0,5.0,71,0.00,,OVC050,0.00,VWS V12.08,2013-09-25 14:53:00,
2013-09-25 10:58:00,54.0,45.2,29.93,ENE,72,1.0,3.0,72,0.00,,OVC050,0.00,VWS V12.08,2013-09-25 14:58:00,
2013-09-25 11:03:00,54.1,46.0,29.93,ENE,72,2.0,3.0,74,0.00,,OVC050,0.00,VWS V12.08,2013-09-25 15:03:00,
2013-09-25 11:08:00,54.1,46.0,29.93,ENE,75,0.0,2.0,74,0.00,,OVC050,0.00,VWS V12.08,2013-09-25 15:08:00,
2013-09-25 11:13:00,54.1,45.3,29.93,East,82,1.0,3.0,72,0.00,,OVC050,0.00,VWS V12.08,2013-09-25 15:13:00,
2013-09-25 11:18:00,53.8,45.0,29.93,ENE,65,2.0,3.0,72,0.00,,OVC050,0.00,VWS V12.08,2013-09-25 15:18:00,
2013-09-25 11:23:00,53.8,45.0,29.93,ENE,66,2.0,3.0,72,0.00,,OVC050,0.00,VWS V12.08,2013-09-25 15:23:00,
2013-09-25 11:28:00,53.8,45.4,29.93,ENE,78,1.0,3.0,73,0.00,,OVC050,0.00,VWS V12.08,2013-09-25 15:28:00,
2013-09-25 11:33:00,54.1,45.3,29.93,ENE,68,3.0,3.0,72,0.00,,OVC050,0.00,VWS V12.08,2013-09-25 15:33:00,
2013-09-25 11:38:00,53.8,45.4,29.93,ESE,107,0.0,1.0,73,0.00,,OVC050,0.00,VWS V12.08,2013-09-25 15:38:00,
2013-09-25 11:43:00,53.7,45.3,29.93,ESE,107,0.0,0.0,73,0.00,,OVC025,0.00,VWS V12.08,2013-09-25 15:43:00,
2013-09-25 11:48:00,54.0,45.2,29.93,East,80,0.0,1.0,72,0.00,,OVC025,0.00,VWS V12.08,2013-09-25 15:48:00,
2013-09-25 11:53:00,54.4,45.6,29.93,ENE,78,0.0,2.0,72,0.00,,OVC025,0.00,VWS V12.08,2013-09-25 15:53:00,
2013-09-25 11:58:00,54.7,45.5,29.92,ENE,76,0.0,0.0,71,0.00,,OVC025,0.00,VWS V12.08,2013-09-25 15:58:00,
2013-09-25 12:03:00,54.8,45.6,29.92,ENE,76,0.0,0.0,71,0.00,,OVC025,0.00,VWS V12.08,2013-09-25 16:03:00,
2013-09-25 12:08:00,54.8,45.6,29.92,East,79,0.0,0.0,71,0.00,,OVC025,0.00,VWS V12.08,2013-09-25 16:08:00,
2013-09-25 12:13:00,54.7,45.5,29.92,East,79,1.0,1.0,71,0.00,,OVC025,0.00,VWS V12.08,2013-09-25 16:13:00,
2013-09-25 12:18:00,54.8,46.0,29.92,East,79,2.0,2.0,72,0.00,,OVC025,0.00,VWS V12.08,2013-09-25 16:18:00,
2013-09-25 12:23:00,55.0,46.2,29.92,ENE,78,0.0,0.0,72,0.00,,OVC025,0.00,VWS V12.08,2013-09-25 16:23:00,
2013-09-25 12:28:00,55.3,46.1,29.92,ESE,106,2.0,3.0,71,0.00,,OVC025,0.00,VWS V12.08,2013-09-25 16:28:00,
2013-09-25 12:33:00,55.5,46.3,29.92,NE,51,6.0,6.0,71,0.00,,OVC025,0.00,VWS V12.08,2013-09-25 16:33:00,
2013-09-25 12:38:00,55.6,46.7,29.92,ENE,59,1.0,2.0,72,0.00,,OVC025,0.00,VWS V12.08,2013-09-25 16:38:00,
2013-09-25 12:43:00,55.9,47.4,29.92,ENE,68,0.0,1.0,73,0.00,,OVC027,0.00,VWS V12.08,2013-09-25 16:43:00,
2013-09-25 12:48:00,55.9,46.7,29.92,NE,45,3.0,3.0,71,0.00,,OVC027,0.00,VWS V12.08,2013-09-25 16:48:00,
2013-09-25 12:53:00,55.9,46.3,29.92,East,82,0.0,5.0,70,0.00,,OVC027,0.00,VWS V12.08,2013-09-25 16:53:00,
2013-09-25 12:58:00,55.9,46.7,29.92,NE,49,0.0,1.0,71,0.00,,OVC027,0.00,VWS V12.08,2013-09-25 16:58:00,
2013-09-25 13:03:00,55.9,46.7,29.92,ENE,59,0.0,2.0,71,0.00,,OVC027,0.00,VWS V12.08,2013-09-25 17:03:00,
2013-09-25 13:08:00,55.8,46.5,29.92,East,99,1.0,4.0,71,0.00,,OVC027,0.00,VWS V12.08,2013-09-25 17:08:00,
2013-09-25 13:13:00,55.8,46.9,29.92,East,99,0.0,0.0,72,0.00,,OVC027,0.00,VWS V12.08,2013-09-25 17:13:00,
2013-09-25 13:18:00,55.9,46.7,29.92,East,99,0.0,3.0,71,0.00,,OVC027,0.00,VWS V12.08,2013-09-25 17:18:00,
2013-09-25 13:23:00,56.1,47.2,29.92,East,86,2.0,3.0,72,0.00,,OVC027,0.00,VWS V12.08,2013-09-25 17:23:00,
2013-09-25 13:28:00,56.2,47.7,29.91,ENE,73,1.0,2.0,73,0.00,,OVC027,0.00,VWS V12.08,2013-09-25 17:28:00,
2013-09-25 13:33:00,56.2,46.9,29.91,ENE,62,2.0,5.0,71,0.00,,OVC027,0.00,VWS V12.08,2013-09-25 17:33:00,
2013-09-25 13:38:00,56.2,47.3,29.91,East,79,0.0,0.0,72,0.00,,OVC027,0.00,VWS V12.08,2013-09-25 17:38:00,
2013-09-25 13:43:00,56.4,47.1,29.91,East,79,3.0,3.0,71,0.00,,OVC025,0.00,VWS V12.08,2013-09-25 17:43:00,
2013-09-25 13:48:00,56.4,47.1,29.91,ENE,75,1.0,3.0,71,0.00,,OVC025,0.00,VWS V12.08,2013-09-25 17:48:00,
2013-09-25 13:54:00,56.2,46.6,29.91,ENE,71,1.0,2.0,70,0.00,,OVC025,0.00,VWS V12.08,2013-09-25 17:54:00,
2013-09-25 13:59:00,56.4,47.5,29.91,East,93,0.0,3.0,72,0.00,,OVC025,0.00,VWS V12.08,2013-09-25 17:59:00,
2013-09-25 14:04:00,56.4,47.1,29.91,ENE,71,1.0,4.0,71,0.00,,OVC025,0.00,VWS V12.08,2013-09-25 18:04:00,
2013-09-25 14:09:00,56.5,47.6,29.91,ENE,78,5.0,5.0,72,0.00,,OVC025,0.00,VWS V12.08,2013-09-25 18:09:00,
2013-09-25 14:14:00,56.4,47.1,29.91,ENE,75,0.0,1.0,71,0.00,,OVC025,0.00,VWS V12.08,2013-09-25 18:14:00,
2013-09-25 14:19:00,56.4,47.1,29.91,ENE,75,1.0,2.0,71,0.00,,OVC025,0.00,VWS V12.08,2013-09-25 18:19:00,
2013-09-25 14:24:00,56.4,47.1,29.91,ENE,71,0.0,0.0,71,0.00,,OVC025,0.00,VWS V12.08,2013-09-25 18:24:00,
2013-09-25 14:29:00,56.4,47.5,29.91,East,85,1.0,3.0,72,0.00,,OVC025,0.00,VWS V12.08,2013-09-25 18:29:00,
2013-09-25 14:34:00,56.4,47.5,29.91,NE,49,0.0,0.0,72,0.00,,OVC025,0.00,VWS V12.08,2013-09-25 18:34:00,
2013-09-25 14:39:00,56.2,46.9,29.91,ENE,59,6.0,6.0,71,0.00,,OVC025,0.00,VWS V12.08,2013-09-25 18:39:00,
2013-09-25 14:44:00,56.2,47.7,29.91,East,85,1.0,3.0,73,0.00,,OVC025,0.00,VWS V12.08,2013-09-25 18:44:00,
2013-09-25 14:49:00,56.2,47.7,29.91,East,79,3.0,6.0,73,0.00,,OVC025,0.00,VWS V12.08,2013-09-25 18:49:00,
2013-09-25 14:54:00,55.9,46.7,29.91,East,82,3.0,6.0,71,0.00,,OVC025,0.00,VWS V12.08,2013-09-25 18:54:00,
2013-09-25 14:59:00,55.8,46.9,29.92,NE,44,3.0,6.0,72,0.00,,OVC025,0.00,VWS V12.08,2013-09-25 18:59:00,
2013-09-25 15:04:00,55.6,47.1,29.92,ENE,58,5.0,8.0,73,0.00,,OVC025,0.00,VWS V12.08,2013-09-25 19:04:00,
2013-09-25 15:09:00,55.5,47.0,29.92,ENE,69,3.0,5.0,73,0.00,,OVC025,0.00,VWS V12.08,2013-09-25 19:09:00,
2013-09-25 15:14:00,55.5,47.0,29.92,NE,51,2.0,6.0,73,0.00,,OVC025,0.00,VWS V12.08,2013-09-25 19:14:00,
2013-09-25 15:19:00,55.3,46.8,29.92,ENE,73,3.0,6.0,73,0.00,,OVC025,0.00,VWS V12.08,2013-09-25 19:19:00,
2013-09-25 15:24:00,55.1,46.6,29.92,ENE,75,2.0,4.0,73,0.00,,OVC025,0.00,VWS V12.08,2013-09-25 19:24:00,
2013-09-25 15:29:00,55.1,47.3,29.92,ENE,65,0.0,0.0,75,0.00,,OVC025,0.00,VWS V12.08,2013-09-25 19:29:00,
2013-09-25 15:34:00,55.3,47.9,29.92,ENE,58,0.0,2.0,76,0.00,,OVC025,0.00,VWS V12.08,2013-09-25 19:34:00,
2013-09-25 15:39:00,55.3,47.5,29.92,East,85,3.0,7.0,75,0.00,,OVC025,0.00,VWS V12.08,2013-09-25 19:39:00,
2013-09-25 15:45:00,55.1,47.3,29.92,ENE,69,2.0,2.0,75,0.00,,OVC023,0.00,VWS V12.08,2013-09-25 19:45:00,
2013-09-25 15:50:00,55.0,47.2,29.92,ENE,72,2.0,3.0,75,0.00,,OVC023,0.00,VWS V12.08,2013-09-25 19:50:00,
2013-09-25 15:55:00,54.8,47.7,29.92,East,86,0.0,2.0,77,0.00,,OVC023,0.00,VWS V12.08,2013-09-25 19:55:00,
2013-09-25 16:00:00,54.7,47.3,29.92,East,92,3.0,6.0,76,0.00,,OVC023,0.00,VWS V12.08,2013-09-25 20:00:00,
2013-09-25 16:05:00,54.5,47.1,29.92,ENE,64,1.0,3.0,76,0.00,,OVC023,0.00,VWS V12.08,2013-09-25 20:05:00,
2013-09-25 16:10:00,54.4,47.3,29.92,NE,40,2.0,3.0,77,0.00,,OVC023,0.00,VWS V12.08,2013-09-25 20:10:00,
2013-09-25 16:15:00,54.4,47.7,29.93,NE,56,2.0,2.0,78,0.00,,OVC023,0.00,VWS V12.08,2013-09-25 20:15:00,
2013-09-25 16:20:00,54.2,47.5,29.93,NE,35,0.0,1.0,78,0.00,,OVC023,0.00,VWS V12.08,2013-09-25 20:20:00,
2013-09-25 16:25:00,54.1,47.7,29.93,NE,56,0.0,3.0,79,0.00,,OVC023,0.00,VWS V12.08,2013-09-25 20:25:00,
2013-09-25 16:30:00,54.0,47.3,29.93,East,82,3.0,5.0,78,0.00,,OVC023,0.00,VWS V12.08,2013-09-25 20:30:00,
2013-09-25 16:35:00,54.0,47.3,29.93,East,93,0.0,3.0,78,0.00,,OVC023,0.00,VWS V12.08,2013-09-25 20:35:00,
2013-09-25 16:40:00,54.0,47.6,29.93,East,97,1.0,6.0,79,0.00,,OVC023,0.00,VWS V12.08,2013-09-25 20:40:00,
2013-09-25 16:45:00,53.8,47.8,29.93,East,97,0.0,0.0,80,0.00,,OVC023,0.00,VWS V12.08,2013-09-25 20:45:00,
2013-09-25 16:50:00,53.7,47.7,29.93,NE,45,0.0,3.0,80,0.00,,OVC023,0.00,VWS V12.08,2013-09-25 20:50:00,
2013-09-25 16:55:00,53.5,47.5,29.93,ENE,69,1.0,2.0,80,0.00,,OVC023,0.00,VWS V12.08,2013-09-25 20:55:00,
2013-09-25 17:00:00,53.4,47.4,29.93,East,86,1.0,3.0,80,0.00,,OVC023,0.00,VWS V12.08,2013-09-25 21:00:00,
2013-09-25 17:05:00,53.4,47.7,29.93,ENE,72,6.0,6.0,81,0.00,,OVC023,0.00,VWS V12.08,2013-09-25 21:05:00,
2013-09-25 17:10:00,53.2,47.5,29.93,ENE,68,0.0,2.0,81,0.00,,OVC023,0.00,VWS V12.08,2013-09-25 21:10:00,
2013-09-25 17:15:00,53.2,47.5,29.94,NE,55,0.0,1.0,81,0.00,,OVC023,0.00,VWS V12.08,2013-09-25 21:15:00,
2013-09-25 17:20:00,53.1,47.8,29.94,NE,56,0.0,0.0,82,0.00,,OVC023,0.00,VWS V12.08,2013-09-25 21:20:00,
2013-09-25 17:25:00,52.9,47.6,29.94,NE,56,0.0,1.0,82,0.00,,OVC025,0.00,VWS V12.08,2013-09-25 21:25:00,
2013-09-25 17:30:00,52.9,47.9,29.94,NE,56,0.0,3.0,83,0.00,,OVC025,0.00,VWS V12.08,2013-09-25 21:30:00,
2013-09-25 17:35:00,52.8,47.8,29.94,ENE,58,1.0,2.0,83,0.00,,OVC025,0.00,VWS V12.08,2013-09-25 21:35:00,
2013-09-25 17:40:00,52.6,47.6,29.94,NE,49,2.0,3.0,83,0.00,,OVC025,0.00,VWS V12.08,2013-09-25 21:40:00,
2013-09-25 17:45:00,52.6,47.3,29.94,ENE,66,0.0,3.0,82,0.00,,OVC025,0.00,VWS V12.08,2013-09-25 21:45:00,
2013-09-25 17:50:00,52.5,47.5,29.94,ENE,66,0.0,0.0,83,0.00,,OVC025,0.00,VWS V12.08,2013-09-25 21:50:00,
2013-09-25 17:55:00,52.5,47.8,29.94,ENE,66,1.0,3.0,84,0.00,,OVC025,0.00,VWS V12.08,2013-09-25 21:55:00,
2013-09-25 18:00:00,52.3,47.6,29.95,ENE,59,0.0,2.0,84,0.00,,OVC025,0.00,VWS V12.08,2013-09-25 22:00:00,
2013-09-25 18:06:00,52.2,47.5,29.95,ENE,59,0.0,0.0,84,0.00,,OVC025,0.00,VWS V12.08,2013-09-25 22:06:00,
2013-09-25 18:11:00,52.2,47.8,29.95,ENE,59,0.0,0.0,85,0.00,,OVC025,0.00,VWS V12.08,2013-09-25 22:11:00,
2013-09-25 18:16:00,52.0,47.6,29.95,NE,56,0.0,4.0,85,0.00,,OVC025,0.00,VWS V12.08,2013-09-25 22:16:00,
2013-09-25 18:21:00,51.9,47.5,29.95,NE,56,0.0,0.0,85,0.00,,OVC025,0.00,VWS V12.08,2013-09-25 22:21:00,
2013-09-25 18:26:00,51.9,47.5,29.95,NE,56,0.0,2.0,85,0.00,,OVC025,0.00,VWS V12.08,2013-09-25 22:26:00,
2013-09-25 18:31:00,51.7,47.3,29.95,NE,56,0.0,0.0,85,0.00,,OVC025,0.00,VWS V12.08,2013-09-25 22:31:00,
2013-09-25 18:36:00,51.7,47.3,29.95,NE,56,0.0,0.0,85,0.00,,OVC025,0.00,VWS V12.08,2013-09-25 22:36:00,
2013-09-25 18:41:00,51.6,47.2,29.95,NE,55,0.0,1.0,85,0.00,,OVC029,0.00,VWS V12.08,2013-09-25 22:41:00,
2013-09-25 18:46:00,51.6,47.2,29.95,NE,55,0.0,0.0,85,0.00,,OVC029,0.00,VWS V12.08,2013-09-25 22:46:00,
2013-09-25 18:51:00,51.4,47.0,29.95,NE,55,0.0,0.0,85,0.00,,OVC029,0.00,VWS V12.08,2013-09-25 22:51:00,
2013-09-25 18:56:00,51.4,47.4,29.95,NE,55,0.0,1.0,86,0.00,,OVC029,0.00,VWS V12.08,2013-09-25 22:56:00,
2013-09-25 19:01:00,51.3,47.3,29.95,NE,55,0.0,0.0,86,0.00,,OVC029,0.00,VWS V12.08,2013-09-25 23:01:00,
2013-09-25 19:06:00,51.1,47.1,29.95,NE,55,0.0,0.0,86,0.00,,OVC029,0.00,VWS V12.08,2013-09-25 23:06:00,
2013-09-25 19:11:00,51.1,47.4,29.95,NE,55,0.0,0.0,87,0.00,,OVC029,0.00,VWS V12.08,2013-09-25 23:11:00,
2013-09-25 19:16:00,51.1,47.7,29.95,NE,55,0.0,0.0,88,0.00,,OVC029,0.00,VWS V12.08,2013-09-25 23:16:00,
2013-09-25 19:21:00,51.0,47.6,29.95,NE,55,0.0,0.0,88,0.00,,OVC029,0.00,VWS V12.08,2013-09-25 23:21:00,
2013-09-25 19:26:00,50.8,46.8,29.95,NE,54,0.0,0.0,86,0.00,,OVC029,0.00,VWS V12.08,2013-09-25 23:26:00,
2013-09-25 19:31:00,50.8,46.8,29.96,NE,48,0.0,0.0,86,0.00,,OVC029,0.00,VWS V12.08,2013-09-25 23:31:00,
2013-09-25 19:36:00,50.7,46.7,29.96,NE,48,0.0,0.0,86,0.00,,OVC029,0.00,VWS V12.08,2013-09-25 23:36:00,
2013-09-25 19:41:00,50.7,46.7,29.96,NE,48,0.0,0.0,86,0.00,,OVC027,0.00,VWS V12.08,2013-09-25 23:41:00,
2013-09-25 19:46:00,50.7,46.7,29.96,NE,48,0.0,0.0,86,0.00,,OVC027,0.00,VWS V12.08,2013-09-25 23:46:00,
2013-09-25 19:51:00,50.6,46.6,29.96,NE,49,0.0,0.0,86,0.00,,OVC027,0.00,VWS V12.08,2013-09-25 23:51:00,
2013-09-25 19:56:00,50.6,46.6,29.96,NE,49,0.0,0.0,86,0.00,,OVC027,0.00,VWS V12.08,2013-09-25 23:56:00,
2013-09-25 20:01:00,50.6,46.9,29.97,NE,48,0.0,0.0,87,0.00,,OVC031,0.00,VWS V12.08,2013-09-26 00:01:00,
2013-09-25 20:06:00,50.6,46.9,29.97,NE,49,0.0,1.0,87,0.00,,OVC031,0.00,VWS V12.08,2013-09-26 00:06:00,
2013-09-25 20:11:00,50.4,46.7,29.97,NE,49,0.0,0.0,87,0.00,,OVC031,0.00,VWS V12.08,2013-09-26 00:11:00,
2013-09-25 20:16:00,50.4,47.0,29.96,NE,49,0.0,0.0,88,0.00,,OVC031,0.00,VWS V12.08,2013-09-26 00:16:00,
2013-09-25 20:22:00,50.3,46.9,29.96,NE,49,0.0,0.0,88,0.00,,OVC031,0.00,VWS V12.08,2013-09-26 00:22:00,
2013-09-25 20:27:00,50.3,46.9,29.97,NE,49,0.0,0.0,88,0.00,,OVC031,0.00,VWS V12.08,2013-09-26 00:27:00,
2013-09-25 20:32:00,50.1,47.0,29.97,NE,49,0.0,0.0,89,0.00,,OVC031,0.00,VWS V12.08,2013-09-26 00:32:00,
2013-09-25 20:37:00,50.1,47.0,29.97,NE,49,0.0,0.0,89,0.00,,OVC031,0.00,VWS V12.08,2013-09-26 00:37:00,
2013-09-25 20:42:00,50.0,47.2,29.97,NE,49,0.0,0.0,90,0.00,,OVC031,0.00,VWS V12.08,2013-09-26 00:42:00,
2013-09-25 20:47:00,50.0,47.5,29.97,NE,49,0.0,0.0,91,0.00,,OVC031,0.00,VWS V12.08,2013-09-26 00:47:00,
2013-09-25 20:52:00,49.8,47.6,29.97,NE,49,0.0,0.0,92,0.00,,OVC031,0.00,VWS V12.08,2013-09-26 00:52:00,
2013-09-25 20:57:00,49.8,47.6,29.98,NE,49,0.0,0.0,92,0.00,,OVC031,0.00,VWS V12.08,2013-09-26 00:57:00,
2013-09-25 21:03:00,49.7,47.5,29.98,NE,49,0.0,0.0,92,0.00,,OVC031,0.00,VWS V12.08,2013-09-26 01:03:00,
2013-09-25 21:08:00,49.7,47.8,29.98,NE,49,0.0,0.0,93,0.00,,OVC031,0.00,VWS V12.08,2013-09-26 01:08:00,
2013-09-25 21:13:00,49.5,47.6,29.98,NE,49,0.0,0.0,93,0.00,,OVC031,0.00,VWS V12.08,2013-09-26 01:13:00,
2013-09-25 21:18:00,49.4,47.5,29.98,NE,49,0.0,0.0,93,0.00,,OVC031,0.00,VWS V12.08,2013-09-26 01:18:00,
2013-09-25 21:23:00,49.2,47.3,29.98,NE,49,0.0,0.0,93,0.00,,OVC031,0.00,VWS V12.08,2013-09-26 01:23:00,
2013-09-25 21:28:00,49.1,47.5,29.98,NE,49,0.0,0.0,94,0.00,,OVC031,0.00,VWS V12.08,2013-09-26 01:28:00,
2013-09-25 21:33:00,49.1,47.5,29.98,NE,49,0.0,0.0,94,0.00,,OVC031,0.00,VWS V12.08,2013-09-26 01:33:00,
2013-09-25 21:38:00,48.9,47.2,29.98,NE,49,0.0,0.0,94,0.00,,OVC031,0.00,VWS V12.08,2013-09-26 01:38:00,
2013-09-25 21:43:00,48.8,47.2,29.98,NE,49,0.0,0.0,94,0.00,,OVC031,0.00,VWS V12.08,2013-09-26 01:43:00,
2013-09-25 21:48:00,48.8,47.2,29.98,NE,49,0.0,0.0,94,0.00,,OVC031,0.00,VWS V12.08,2013-09-26 01:48:00,
2013-09-25 21:53:00,48.8,47.4,29.98,NE,49,0.0,0.0,95,0.00,,OVC031,0.00,VWS V12.08,2013-09-26 01:53:00,
2013-09-25 21:58:00,48.6,47.2,29.98,NE,49,0.0,0.0,95,0.00,,OVC031,0.00,VWS V12.08,2013-09-26 01:58:00,
2013-09-25 22:03:00,48.6,47.2,29.98,NE,49,0.0,0.0,95,0.00,,OVC031,0.00,VWS V12.08,2013-09-26 02:03:00,
2013-09-25 22:08:00,48.5,47.1,29.98,NE,49,0.0,0.0,95,0.00,,OVC031,0.00,VWS V12.08,2013-09-26 02:08:00,
2013-09-25 22:13:00,48.5,47.1,29.98,NE,49,0.0,0.0,95,0.00,,OVC031,0.00,VWS V12.08,2013-09-26 02:13:00,
2013-09-25 22:18:00,48.3,46.9,29.98,NE,49,0.0,0.0,95,0.00,,OVC031,0.00,VWS V12.08,2013-09-26 02:18:00,
2013-09-25 22:23:00,48.3,47.2,29.98,NE,49,0.0,0.0,96,0.00,,OVC031,0.00,VWS V12.08,2013-09-26 02:23:00,
2013-09-25 22:28:00,48.2,47.1,29.98,NE,49,0.0,0.0,96,0.00,,OVC031,0.00,VWS V12.08,2013-09-26 02:28:00,
2013-09-25 22:33:00,48.2,47.1,29.98,NE,49,0.0,0.0,96,0.00,,OVC031,0.00,VWS V12.08,2013-09-26 02:33:00,
2013-09-25 22:38:00,48.0,47.2,29.98,NE,49,0.0,0.0,97,0.00,,OVC031,0.00,VWS V12.08,2013-09-26 02:38:00,
2013-09-25 22:43:00,48.0,47.2,29.99,NE,49,0.0,0.0,97,0.00,,BKN031,0.00,VWS V12.08,2013-09-26 02:43:00,
2013-09-25 22:49:00,47.9,47.1,29.99,NE,49,0.0,0.0,97,0.00,,BKN031,0.00,VWS V12.08,2013-09-26 02:49:00,
2013-09-25 22:54:00,47.7,46.9,29.99,NE,49,0.0,0.0,97,0.00,,BKN031,0.00,VWS V12.08,2013-09-26 02:54:00,
2013-09-25 22:59:00,47.6,46.8,29.99,NE,49,0.0,0.0,97,0.00,,BKN031,0.00,VWS V12.08,2013-09-26 02:59:00,
2013-09-25 23:04:00,47.6,46.8,29.99,NE,49,0.0,0.0,97,0.00,,BKN031,0.00,VWS V12.08,2013-09-26 03:04:00,
2013-09-25 23:09:00,47.4,46.6,29.99,NE,49,0.0,0.0,97,0.00,,BKN031,0.00,VWS V12.08,2013-09-26 03:09:00,
2013-09-25 23:14:00,47.4,46.6,29.99,NE,49,0.0,0.0,97,0.00,,BKN031,0.00,VWS V12.08,2013-09-26 03:14:00,
2013-09-25 23:19:00,47.4,46.9,29.99,NE,49,0.0,0.0,98,0.00,,BKN031,0.00,VWS V12.08,2013-09-26 03:19:00,
2013-09-25 23:24:00,47.4,46.9,29.99,NE,49,0.0,0.0,98,0.00,,BKN031,0.00,VWS V12.08,2013-09-26 03:24:00,
2013-09-25 23:29:00,47.4,46.9,30.00,NE,49,0.0,0.0,98,0.00,,BKN031,0.00,VWS V12.08,2013-09-26 03:29:00,
2013-09-25 23:34:00,47.4,47.1,30.00,NE,49,0.0,0.0,99,0.00,,BKN031,0.00,VWS V12.08,2013-09-26 03:34:00,
2013-09-25 23:39:00,47.4,47.1,30.00,NE,49,0.0,0.0,99,0.00,,BKN031,0.00,VWS V12.08,2013-09-26 03:39:00,
2013-09-25 23:44:00,47.4,47.1,30.00,NE,49,0.0,0.0,99,0.00,,OVC033,0.00,VWS V12.08,2013-09-26 03:44:00,
2013-09-25 23:49:00,47.3,47.0,30.00,NE,49,0.0,0.0,99,0.00,,OVC033,0.00,VWS V12.08,2013-09-26 03:49:00,
2013-09-25 23:54:00,47.3,47.0,30.00,NE,49,0.0,0.0,99,0.00,,OVC033,0.00,VWS V12.08,2013-09-26 03:54:00,
2013-09-25 23:59:00,47.3,47.0,30.00,NE,49,0.0,0.0,99,0.00,,OVC033,0.00,VWS V12.08,2013-09-26 03:59:00,